Wilmington, DE

4:18 PM EST on December 08, 2019 (GMT -0500)
New Castle County

Weather History for KILG - November, 2019

Change the Weather History Date:

Thursday, November 14, 2019

  Actual Average Record
Temperature  
Mean Temperature 34 °F 47 °F  
Max Temperature 45 °F 56 °F 76 °F (1955)
Min Temperature 22 °F 38 °F 20 °F (1986)
Degree Days  
Heating Degree Days 31 18  
Month to date heating degree days 310 223  
Since 1 July heating degree days 480 567  
Cooling Degree Days 0 0  
Month to date cooling degree days 0 0  
Year to date cooling degree days 1508 1145  
Moisture  
Dew Point 22 °F    
Average Humidity 61    
Maximum Humidity 81    
Minimum Humidity 40    
Precipitation  
Precipitation 0.00 in 0.09 in 2.42 in (1972)
Month to date precipitation 0.21 1.36  
Year to date precipitation 42.30 37.86  
Snow  
Snow 0.00 in 0.00 in 2.00 in (1908)
Month to date snowfall T 0.0  
Since 1 July snowfall T 0.0  
Since 1 September snowfall T 0.0  
Snow Depth 0.00 in    
Sea Level Pressure  
Sea Level Pressure 30.39 in    
Wind  
Wind Speed 6 mph (SSW)    
Max Wind Speed 16 mph    
Max Gust Speed 20 mph    
Visibility 10 miles    
Events      
T = Trace of Precipitation, MM = Missing Value Source: NWS Daily Summary

Daily Weather History Graph

Daily Weather History Graph

Search for Another Location

Airport or City:

Astronomy

Nov. 14, 2019 Rise Set
Actual Time 6:45 AM EST 4:47 PM EST
Civil Twilight 6:16 AM EST 5:16 PM EST
Nautical Twilight 5:44 AM EST 5:49 PM EST
Astronomical Twilight 5:12 AM EST 6:20 PM EST
Moon 6:32 PM EST (11/14) 8:38 AM EST (11/14)
Length of Visible Light 10h 59m
Length of Day
10h 02m
Waning Gibbous, 95% of the Moon is Illuminated
Nov 14
Waning Gibbous
Nov 19
Last Quarter
Nov 26
New
Dec 4
First Quarter
Dec 12
Full

Hourly Weather History & Observations

Time (EST) Temp. Windchill Dew Point Humidity Pressure Visibility Wind Dir Wind Speed Gust Speed Precip Events Conditions
12:51 AM 27.0 °F - 18.0 °F 69% 30.44 in 10.0 mi Calm Calm - N/A   Clear
1:51 AM 28.9 °F - 17.1 °F 61% 30.44 in 10.0 mi Calm Calm - N/A   Clear
2:51 AM 28.0 °F 22.8 °F 16.0 °F 61% 30.43 in 10.0 mi SE 4.6 mph - N/A   Clear
3:51 AM 28.9 °F 23.9 °F 16.0 °F 58% 30.42 in 10.0 mi ESE 4.6 mph - N/A   Clear
4:51 AM 27.0 °F 23.0 °F 16.0 °F 63% 30.42 in 10.0 mi SE 3.5 mph - N/A   Clear
5:51 AM 24.1 °F 19.7 °F 19.0 °F 81% 30.43 in 10.0 mi NW 3.5 mph - N/A   Clear
6:51 AM 24.1 °F - 19.9 °F 84% 30.44 in 10.0 mi Calm Calm - N/A   Clear
7:51 AM 30.0 °F - 21.0 °F 69% 30.46 in 10.0 mi Calm Calm - N/A   Clear
8:51 AM 36.0 °F 30.3 °F 21.9 °F 57% 30.46 in 10.0 mi South 6.9 mph - N/A   Clear
9:51 AM 37.9 °F 30.9 °F 23.0 °F 55% 30.45 in 10.0 mi SSW 10.4 mph - N/A   Clear
10:51 AM 39.9 °F 31.8 °F 24.1 °F 53% 30.43 in 10.0 mi SSW 15.0 mph - N/A   Clear
11:51 AM 41.0 °F 33.9 °F 23.0 °F 49% 30.40 in 10.0 mi SW 12.7 mph - N/A   Clear
12:51 PM 44.1 °F 38.6 °F 21.9 °F 42% 30.37 in 10.0 mi South 10.4 mph - N/A   Clear
1:51 PM 44.1 °F 37.1 °F 23.0 °F 43% 30.35 in 10.0 mi South 15.0 mph - N/A   Clear
3:51 PM 43.0 °F 36.4 °F 23.0 °F 45% 30.35 in 10.0 mi SSW 12.7 mph - N/A   Clear
4:51 PM 41.0 °F 38.0 °F 24.1 °F 51% 30.35 in 10.0 mi SW 4.6 mph - N/A   Clear
5:51 PM 39.9 °F 36.7 °F 25.0 °F 55% 30.34 in 10.0 mi South 4.6 mph - N/A   Clear
6:51 PM 37.9 °F 33.5 °F 25.0 °F 60% 30.33 in 10.0 mi SSW 5.8 mph - N/A   Clear
7:51 PM 33.1 °F 28.7 °F 25.0 °F 72% 30.33 in 10.0 mi WNW 4.6 mph - N/A   Clear
8:51 PM 36.0 °F 33.3 °F 27.0 °F 70% 30.34 in 10.0 mi WSW 3.5 mph - N/A   Clear
9:51 PM 37.0 °F 33.3 °F 27.0 °F 67% 30.34 in 10.0 mi West 4.6 mph - N/A   Clear
10:51 PM 34.0 °F 31.0 °F 27.0 °F 75% 30.33 in 10.0 mi NNW 3.5 mph - N/A   Partly Cloudy
11:51 PM 34.0 °F - 27.0 °F 75% 30.32 in 10.0 mi Calm Calm - N/A   Clear